Weather in Spokane

United States     47°40′24″N   117°23′47″W
temp.,
°C
wind,
m/s
gust,
m/s
humid.,
%
clouds,
%
prec.,
mm/h
press.,
hPa
HPBL,
m
16 may, sun
sun1623:00+18sw12392 0.0 101137
02:00+16ese11455 0.0 101111
05:00+13se115123 0.0 101122
08:00+17e1144100 0.0 1012269
11:00+23ssw1230100 0.0 1011873
14:00+26sw33235 0.0 10092387
17:00+26sw44225 0.0 10072112
20:00+22ssw23340 0.0 100674
17 may, mon
mon1723:00+18sse22435 0.0 100643
02:00+15se22495 0.0 100665
05:00+13se24556 0.0 1007135
08:00+17s574886 0.0 1007833
11:00+22ssw693841 0.0 10061478
14:00+24sw81132100 0.0 10052125
17:00+23wsw71132100 0.0 10042342
20:00+18wsw51037100 0.0 1005563
18 may, tue
tue1823:00+14ssw51140100 0.0 1007485
02:00+12ssw7125569 0.0 1009766
05:00+9ssw7126758 0.0 1012670
08:00+11sw7125749 0.0 10131701
11:00+13wsw1014285 0.1 10142335
14:00+15wsw912225 0.0 10132825
17:00+15wsw8112080 0.0 10123370
20:00+12sw583198 0.0 10131290
19 may, wed
wed1923:00+9sw25388 0.0 1014222
02:00+7sse1246100 0.0 1015143
05:00+6sse235155 0.0 1015181
08:00+9s124068 0.0 1015643
11:00+13wsw1233100 0.0 10131862
14:00+14ssw2229100 0.0 10112408
17:00+14s3235100 0.0 10102225
20:00+12sw1242100 0.0 10101171
20 may, thu
thu2023:00+10nne235498 0.0 1012114
02:00+8ne2379100 0.1 1012175
05:00+7nne3486100 0.4 1014270
08:00+8nne3474100 0.3 1015772
11:00+9nne446355 0.3 1014978
14:00+13ene3446100 0.1 10131824
17:00+14ene444398 0.1 10121786
20:00+11ne365094 0.0 1012626